When you browse on this site, cookies collect data to enhance your experience and personalize the content and advertising you see.
Visit our Privacy Policy to learn more. By continuing to use the site, you agree to this use of cookies and data.
  • In Belgien
  • Länderverzeichnis
  • Für 7 Tage
  • Wassertemperatur
  • Satellitenkarten
  • Wetterkarte
  • Widgets
  • user-avatar
    Anmelden

    Stündliche Wetter Zaprude

    Heute, 22 März, Freitag

    Zeit Temperatur Niederschläge Wind Luftdruck Luftfeuchtigkeit
    00:00 -2°C° 0 mm 3 m/S 746 mmHg 94%
    01:00 -2°C° 0 mm 3 m/S 746 mmHg 94%
    02:00 -1°C° 0 mm 3 m/S 745 mmHg 94%
    03:00 -2°C° 0.4 mm 4 m/S 744 mmHg 94%
    04:00 -2°C° 0.4 mm 4 m/S 742 mmHg 93%
    05:00 -1°C° 0.4 mm 4 m/S 741 mmHg 93%
    06:00 -1°C° 1.2 mm 4 m/S 740 mmHg 94%
    07:00 -1°C° 1.2 mm 4 m/S 740 mmHg 94%
    08:00 -1°C° 0 mm 4 m/S 739 mmHg 95%
    09:00 -1°C° 0.7 mm 5 m/S 739 mmHg 93%
    10:00 -2°C° 0.7 mm 6 m/S 739 mmHg 91%
    11:00 -1°C° 0.7 mm 7 m/S 739 mmHg 89%
    12:00 -2°C° 0.2 mm 7 m/S 740 mmHg 87%
    13:00 -2°C° 0.2 mm 7 m/S 741 mmHg 85%
    14:00 -2°C° 0.2 mm 7 m/S 741 mmHg 82%
    15:00 -2°C° 0 mm 7 m/S 742 mmHg 82%
    16:00 -2°C° 0 mm 7 m/S 742 mmHg 81%
    17:00 -2°C° 0 mm 6 m/S 743 mmHg 81%
    18:00 -3°C° 0.1 mm 6 m/S 743 mmHg 83%
    19:00 -3°C° 0.1 mm 6 m/S 744 mmHg 85%
    20:00 -3°C° 0.1 mm 6 m/S 744 mmHg 87%
    21:00 -3°C° 0 mm 6 m/S 745 mmHg 88%
    22:00 -2°C° 0 mm 6 m/S 746 mmHg 89%
    23:00 -1°C° 0 mm 5 m/S 747 mmHg 90%

    Morgen, 23 März, Samstag

    Zeit Temperatur Niederschläge Wind Luftdruck Luftfeuchtigkeit
    00:00 -1°C° 0 mm 5 m/S 748 mmHg 91%
    01:00 -1°C° 0 mm 4 m/S 749 mmHg 92%
    02:00 -1°C° 0 mm 4 m/S 749 mmHg 93%
    03:00 -2°C° 0 mm 4 m/S 750 mmHg 94%
    04:00 -1°C° 0 mm 3 m/S 751 mmHg 94%
    05:00 -1°C° 0 mm 3 m/S 752 mmHg 95%
    06:00 -1°C° 0 mm 2 m/S 752 mmHg 96%
    07:00 -1°C° 0 mm 2 m/S 753 mmHg 97%
    08:00 -1°C° 0 mm 2 m/S 753 mmHg 98%
    09:00 +1°C° 0 mm 2 m/S 753 mmHg 97%
    10:00 +2°C° 0 mm 1 m/S 753 mmHg 97%
    11:00 +3°C° 0 mm 1 m/S 754 mmHg 97%
    12:00 +3°C° 0 mm 1 m/S 753 mmHg 96%
    13:00 +3°C° 0 mm 1 m/S 753 mmHg 95%
    14:00 +2°C° 0 mm 0 m/S 753 mmHg 95%
    15:00 +3°C° 0 mm 1 m/S 753 mmHg 93%
    16:00 +3°C° 0 mm 1 m/S 752 mmHg 92%
    17:00 +1°C° 0 mm 2 m/S 752 mmHg 90%
    18:00 +1°C° 0 mm 2 m/S 751 mmHg 90%
    19:00 +1°C° 0 mm 2 m/S 751 mmHg 90%
    20:00 0°C° 0 mm 3 m/S 751 mmHg 90%
    21:00 0°C° 0 mm 3 m/S 750 mmHg 89%
    22:00 -2°C° 0 mm 4 m/S 749 mmHg 89%
    23:00 -2°C° 0 mm 4 m/S 749 mmHg 89%

    übermorgen, 24 März, Sonntag

    Zeit Temperatur Niederschläge Wind Luftdruck Luftfeuchtigkeit
    00:00 -2°C° 0 mm 5 m/S 748 mmHg 88%
    01:00 -2°C° 0 mm 5 m/S 747 mmHg 88%
    02:00 -1°C° 0 mm 5 m/S 746 mmHg 87%
    03:00 -1°C° 0.6 mm 5 m/S 745 mmHg 89%
    04:00 -1°C° 0.6 mm 5 m/S 744 mmHg 90%
    05:00 -1°C° 0.6 mm 5 m/S 744 mmHg 91%
    06:00 -1°C° 0.1 mm 5 m/S 743 mmHg 93%
    07:00 -1°C° 0.1 mm 4 m/S 743 mmHg 94%
    08:00 -1°C° 0.1 mm 4 m/S 743 mmHg 95%
    09:00 0°C° 0 mm 4 m/S 742 mmHg 93%
    10:00 +1°C° 0 mm 4 m/S 742 mmHg 91%
    11:00 +2°C° 0 mm 3 m/S 742 mmHg 89%
    12:00 +1°C° 0.2 mm 4 m/S 742 mmHg 86%
    13:00 +1°C° 0.2 mm 4 m/S 742 mmHg 82%
    14:00 +1°C° 0.2 mm 4 m/S 741 mmHg 79%
    15:00 +1°C° 0.1 mm 4 m/S 741 mmHg 78%
    16:00 0°C° 0.1 mm 4 m/S 741 mmHg 77%
    17:00 0°C° 0.1 mm 3 m/S 742 mmHg 76%
    18:00 0°C° 0 mm 3 m/S 742 mmHg 78%
    19:00 -1°C° 0 mm 3 m/S 742 mmHg 80%
    20:00 -1°C° 0 mm 3 m/S 742 mmHg 82%
    21:00 -2°C° 0 mm 3 m/S 741 mmHg 83%
    22:00 -2°C° 0 mm 3 m/S 741 mmHg 84%
    23:00 -2°C° 0 mm 3 m/S 741 mmHg 85%

    25 März, Montag

    Zeit Temperatur Niederschläge Wind Luftdruck Luftfeuchtigkeit
    00:00 -2°C° 0 mm 3 m/S 741 mmHg 86%
    01:00 -2°C° 0 mm 3 m/S 741 mmHg 86%
    02:00 -2°C° 0 mm 3 m/S 740 mmHg 87%
    03:00 -2°C° 0 mm 3 m/S 740 mmHg 87%
    04:00 -3°C° 0 mm 4 m/S 740 mmHg 86%
    05:00 -3°C° 0 mm 4 m/S 740 mmHg 86%
    06:00 -3°C° 0 mm 4 m/S 740 mmHg 85%
    07:00 -2°C° 0 mm 4 m/S 740 mmHg 84%
    08:00 -2°C° 0 mm 4 m/S 740 mmHg 83%
    09:00 -2°C° 0 mm 4 m/S 740 mmHg 83%
    10:00 -1°C° 0 mm 4 m/S 740 mmHg 83%
    11:00 0°C° 0 mm 4 m/S 740 mmHg 83%
    12:00 0°C° 0.1 mm 4 m/S 740 mmHg 83%
    13:00 0°C° 0.1 mm 4 m/S 740 mmHg 83%
    14:00 +1°C° 0.1 mm 3 m/S 740 mmHg 83%
    15:00 +1°C° 0 mm 3 m/S 740 mmHg 84%
    16:00 +2°C° 0 mm 2 m/S 740 mmHg 86%
    17:00 +1°C° 0 mm 2 m/S 740 mmHg 87%
    18:00 +1°C° 0 mm 2 m/S 741 mmHg 88%
    19:00 +1°C° 0 mm 1 m/S 741 mmHg 89%
    20:00 +1°C° 0 mm 1 m/S 742 mmHg 90%
    21:00 +1°C° 0.8 mm 1 m/S 742 mmHg 91%
    22:00 +1°C° 0.8 mm 1 m/S 742 mmHg 93%
    23:00 +1°C° 0.8 mm 1 m/S 742 mmHg 94%

    26 März, Dienstag

    Zeit Temperatur Niederschläge Wind Luftdruck Luftfeuchtigkeit
    00:00 -2°C° 0.1 mm 2 m/S 742 mmHg 94%
    01:00 -2°C° 0.1 mm 2 m/S 743 mmHg 93%
    02:00 -3°C° 0.1 mm 2 m/S 743 mmHg 92%
    03:00 -3°C° 0 mm 2 m/S 743 mmHg 92%
    04:00 -4°C° 0 mm 3 m/S 744 mmHg 92%
    05:00 -5°C° 0 mm 3 m/S 744 mmHg 92%
    06:00 -4°C° 0 mm 3 m/S 744 mmHg 89%
    07:00 -4°C° 0 mm 4 m/S 745 mmHg 85%
    08:00 -4°C° 0 mm 4 m/S 745 mmHg 82%
    09:00 -3°C° 0 mm 4 m/S 746 mmHg 77%
    10:00 -3°C° 0 mm 4 m/S 746 mmHg 71%
    11:00 -2°C° 0 mm 4 m/S 746 mmHg 66%
    12:00 -2°C° 0.1 mm 4 m/S 746 mmHg 67%
    13:00 -2°C° 0.1 mm 4 m/S 746 mmHg 69%
    14:00 -2°C° 0.1 mm 4 m/S 746 mmHg 70%
    15:00 -2°C° 0.1 mm 4 m/S 746 mmHg 71%
    16:00 -2°C° 0.1 mm 3 m/S 746 mmHg 72%
    17:00 -2°C° 0.1 mm 2 m/S 746 mmHg 73%
    18:00 -3°C° 0 mm 2 m/S 746 mmHg 76%
    19:00 -3°C° 0 mm 2 m/S 746 mmHg 78%
    20:00 -4°C° 0 mm 2 m/S 746 mmHg 81%
    21:00 -4°C° 0.4 mm 2 m/S 746 mmHg 85%
    22:00 -5°C° 0.4 mm 3 m/S 746 mmHg 89%
    23:00 -4°C° 0.4 mm 3 m/S 746 mmHg 93%

    27 März, Mittwoch

    Zeit Temperatur Niederschläge Wind Luftdruck Luftfeuchtigkeit
    00:00 -4°C° 0.1 mm 3 m/S 746 mmHg 93%
    01:00 -5°C° 0.1 mm 3 m/S 746 mmHg 93%
    02:00 -5°C° 0.1 mm 3 m/S 746 mmHg 92%
    03:00 -3°C° 0.2 mm 2 m/S 746 mmHg 93%
    04:00 -3°C° 0.2 mm 2 m/S 746 mmHg 93%
    05:00 -3°C° 0.2 mm 2 m/S 746 mmHg 93%
    06:00 -4°C° 0.2 mm 3 m/S 746 mmHg 91%
    07:00 -2°C° 0.2 mm 3 m/S 746 mmHg 89%
    08:00 -3°C° 0.2 mm 4 m/S 746 mmHg 87%
    09:00 -3°C° 0.3 mm 4 m/S 746 mmHg 87%
    10:00 -2°C° 0.3 mm 4 m/S 746 mmHg 87%
    11:00 -2°C° 0.3 mm 4 m/S 746 mmHg 88%
    12:00 -1°C° 0.3 mm 3 m/S 746 mmHg 88%
    13:00 0°C° 0.3 mm 3 m/S 745 mmHg 88%
    14:00 0°C° 0.3 mm 3 m/S 745 mmHg 88%
    15:00 +1°C° 0.2 mm 3 m/S 745 mmHg 89%
    16:00 +1°C° 0.2 mm 3 m/S 745 mmHg 90%
    17:00 +1°C° 0.2 mm 3 m/S 745 mmHg 92%
    18:00 0°C° 0.2 mm 4 m/S 745 mmHg 92%
    19:00 0°C° 0.2 mm 4 m/S 745 mmHg 92%
    20:00 0°C° 0.2 mm 5 m/S 745 mmHg 93%
    21:00 0°C° 0.1 mm 5 m/S 745 mmHg 93%
    22:00 0°C° 0.1 mm 5 m/S 745 mmHg 93%
    23:00 0°C° 0.1 mm 4 m/S 745 mmHg 94%
    Mehr zeigen